TimePDT,TemperatureF,Dew PointF,Humidity,Sea Level PressureIn,VisibilityMPH,Wind Direction,Wind SpeedMPH,Gust SpeedMPH,PrecipitationIn,Events,Conditions,WindDirDegrees,DateUTC
12:53 AM,45.0,32.0,60,30.31,9.0,NE,4.6,-,N/A,,Clear,40,2013-04-24 07:53:00
1:53 AM,44.1,33.1,65,30.31,10.0,East,4.6,-,N/A,,Clear,100,2013-04-24 08:53:00
2:53 AM,39.2,32.0,75,30.30,9.0,ENE,3.5,-,N/A,,Clear,70,2013-04-24 09:53:00
3:53 AM,37.9,30.9,76,30.32,10.0,Calm,Calm,-,N/A,,Clear,0,2013-04-24 10:53:00
4:53 AM,37.0,30.9,79,30.31,9.0,Calm,Calm,-,N/A,,Clear,0,2013-04-24 11:53:00
5:53 AM,37.0,32.0,82,30.32,9.0,Calm,Calm,-,N/A,,Clear,0,2013-04-24 12:53:00
6:53 AM,37.0,30.9,79,30.31,8.0,Calm,Calm,-,N/A,,Clear,0,2013-04-24 13:53:00
7:53 AM,46.0,35.1,66,30.31,8.0,East,4.6,-,N/A,,Clear,80,2013-04-24 14:53:00
8:53 AM,53.1,37.9,57,30.31,9.0,Calm,Calm,-,N/A,,Clear,0,2013-04-24 15:53:00
9:53 AM,60.1,37.0,42,30.29,8.0,Calm,Calm,-,N/A,,Clear,0,2013-04-24 16:53:00
10:53 AM,64.9,37.9,37,30.28,9.0,Calm,Calm,-,N/A,,Clear,0,2013-04-24 17:53:00
11:53 AM,66.0,39.9,38,30.27,8.0,SW,8.1,-,N/A,,Clear,230,2013-04-24 18:53:00
12:53 PM,69.1,32.0,25,30.25,9.0,WNW,15.0,20.7,N/A,,Clear,290,2013-04-24 19:53:00
1:53 PM,69.1,32.0,25,30.23,9.0,WNW,9.2,20.7,N/A,,Clear,290,2013-04-24 20:53:00
2:53 PM,70.0,32.0,25,30.22,9.0,NNW,8.1,-,N/A,,Clear,330,2013-04-24 21:53:00
3:53 PM,68.0,30.9,25,30.20,9.0,WNW,10.4,-,N/A,,Clear,290,2013-04-24 22:53:00
4:53 PM,66.9,33.1,28,30.18,9.0,NW,6.9,-,N/A,,Clear,310,2013-04-24 23:53:00
5:53 PM,64.9,35.1,33,30.16,9.0,NW,6.9,-,N/A,,Clear,320,2013-04-25 00:53:00
6:53 PM,62.1,33.1,34,30.14,9.0,NW,5.8,-,N/A,,Clear,320,2013-04-25 01:53:00
7:53 PM,55.0,37.9,53,30.13,9.0,NW,4.6,-,N/A,,Clear,310,2013-04-25 02:53:00
8:53 PM,50.0,42.1,74,30.13,8.0,WNW,3.5,-,N/A,,Clear,300,2013-04-25 03:53:00
9:53 PM,48.9,43.0,80,30.13,8.0,Calm,Calm,-,N/A,,Clear,0,2013-04-25 04:53:00
10:53 PM,46.9,42.1,83,30.12,7.0,Calm,Calm,-,N/A,,Clear,0,2013-04-25 05:53:00
11:53 PM,45.0,39.0,80,30.11,7.0,Calm,Calm,-,N/A,,Clear,0,2013-04-25 06:53:00